Regional Weather Roundup
Issued by NWS

Home | Current Version | Previous Version | Graphics & Text | Print | Product List | Glossary On
Versions: 1 2 3 4 5 6 7 8 9 10 11 12 13 14 15 16 17 18 19 20 21 22 23 24 25 26 27
000
ASUS43 KDMX 192307
RWRIA

WEATHER ROUNDUP FOR IOWA
NATIONAL WEATHER SERVICE DES MOINES IA
600 PM CDT SAT APR 19 2014

NOTE: "FAIR" INDICATES FEW OR NO CLOUDS BELOW 12,000 FEET WITH NO
SIGNIFICANT WEATHER AND/OR OBSTRUCTIONS TO VISIBILITY.

* - THESE STATIONS ARE NOT NWS STATIONS...THUS NOT UNDER NWS
QUALITY CONTROL.  THEY ALSO DO NOT REPORT WEATHER SUCH
AS PRECIPITATION OR FOG.

IAZ001>003-012>014-020>022-031>034-043>046-200000-
   NORTHWEST IOWA

CITY           SKY/WX    TMP DP  RH WIND       PRES   REMARKS
CARROLL *      PTSUNNY   77  41  27 S21G29    29.98F
CHEROKEE *     CLOUDY    73  46  38 SW13      29.97S
DENISON *      CLOUDY    75  43  31 S17G25    29.97S
LE MARS *      CLOUDY    70  48  46 NW6       29.97S
ORANGE CITY *  CLOUDY    72  46  40 W8        29.98R
SHELDON *      CLOUDY    70  48  46 W12       29.97S
SIOUX CITY     CLOUDY    74  48  39 NW10      29.96S
SPENCER        CLOUDY    72  48  42 SW6       29.97S
STORM LAKE *   CLOUDY    73  45  35 SW18      29.99R
$$

IAZ055>058-069>071-079>083-090>094-200000-
   SOUTHWEST IOWA

CITY           SKY/WX    TMP DP  RH WIND       PRES   REMARKS
ATLANTIC *     CLOUDY    75  43  31 S20G26    29.99S
AUDUBON *      PTSUNNY   77  32  19 S16       30.01F
CLARINDA *     SUNNY     79  43  27 S21       30.02R
COUNCIL BLFS * PTSUNNY   77  46  33 S14G24    29.96F
CRESTON *      MOSUNNY   73  43  33 S22G30    30.04R
HARLAN  *      PTSUNNY   77  43  29 S20G25    30.01F
LAMONI         MOSUNNY   75  43  31 S20G28    30.05R
RED OAK *      SUNNY     79  45  29 S22G29    29.99S
SHENANDOAH *   SUNNY     79  43  27 S23       29.99S
$$

IAZ047>049-059>061-072>074-084-200000-
   CENTRAL IOWA

CITY           SKY/WX    TMP DP  RH WIND       PRES   REMARKS
AMES           PTSUNNY   74  41  30 S22G28    30.03S
ANKENY *       SUNNY     75  43  31 S15G22    30.03S
CHARITON *     SUNNY     73  45  35 S20G28    30.05S
DES MOINES     PTSUNNY   76  43  30 S18       30.04S
GRINNELL*      PTSUNNY   75  41  29 S21G26    30.07S
KNOXVILLE *    SUNNY     75  43  31 S14G29    30.05S
MARSHALLTOWN   PTSUNNY   73  43  33 S18G30    30.04S
NEWTON *       SUNNY     75  43  31 S17G24    30.06S
PELLA *        PTSUNNY   77  45  31 S17G25    30.07S
PERRY *        CLOUDY    75  36  23 S16       30.02R
$$

IAZ004>006-015-016-023>025-035-036-200000-
   NORTH CENTRAL IOWA

CITY           SKY/WX    TMP DP  RH WIND       PRES   REMARKS
ALGONA *       CLOUDY    75  41  29 S20G28    29.99R
CLARION *      PTSUNNY   73  43  33 S18G25    30.01S
ESTHERVILLE    CLOUDY    72  48  42 SW14      29.97S
FORT DODGE *   CLOUDY    73  45  35 S18G25    30.01S
MASON CITY     PTSUNNY   74  44  34 S21       30.02S
FOREST CITY *  PTSUNNY   73  43  33 S18G24    29.99S
IOWA FALLS *   CLOUDY    75  43  31 S18G24    30.04F
$$

IAZ007>011-017>019-026>030-037>042-050>054-066-200000-
   NORTHEAST IOWA

CITY           SKY/WX    TMP DP  RH WIND       PRES   REMARKS
CEDAR RAPIDS   PTSUNNY   71  39  31 S16       30.09F
CHARLES CITY * PTSUNNY   70  45  40 S18       30.05S
CLINTON *      MOSUNNY   72  34  25 S15       30.17F
DECORAH *      PTSUNNY   70  41  35 S14G21    30.07F
DUBUQUE        PTSUNNY   69  36  29 S17       30.13F
MONTICELLO *   SUNNY     72  41  33 S20G26    30.11F
OELWEIN *      SUNNY    N/A N/A N/A S18G29    30.08S
WATERLOO       PTSUNNY   74  43  32 S20G26    30.05S
$$

IAZ064-065-067-068-078-200000-
   EAST CENTRAL IOWA

CITY           SKY/WX    TMP DP  RH WIND       PRES   REMARKS
DAVENPORT      PTSUNNY   72  34  24 S15       30.15S
IOWA CITY      PTSUNNY   73  42  32 S18G24    30.12S
MT. PLEASANT * PTSUNNY   75  36  23 SE17      30.12S
MUSCATINE *    SUNNY     73  39  29 SE13G20   30.12F
QUAD CITIES    PTSUNNY   72  32  23 S14       30.13F
$$

IAZ062-063-075>077-085>089-095>099-200000-
   SOUTHEAST IOWA

CITY           SKY/WX    TMP DP  RH WIND       PRES   REMARKS
BURLINGTON     PTSUNNY   74  40  29 S12       30.12F
FAIRFIELD *    SUNNY     75  41  29 S17       30.10S
FORT MADISON * SUNNY     73  39  29 S12       30.13F
KEOKUK *       SUNNY     75  43  31 S8G17     30.12S
OSKALOOSA *      N/A     73  43  33 S16       30.08S
CENTERVILLE *  SUNNY     73  45  35 S15G23    30.09S
OTTUMWA        MOSUNNY   74  41  30 S15G24    30.08S
WASHINGTON *   SUNNY     75  41  29 S15G22    30.10S
$$

ABBREVIATIONS USED IN REMARKS
   TC - TEMPERATURES IN CELSIUS
  WCI - WIND CHILL INDEX
   HX - HEAT INDEX
  VSB - VISIBILITY
$$




USA.gov is the U.S. government's official web portal to all federal, state and local government web resources and services.